EDT,Max TemperatureF,Mean TemperatureF,Min TemperatureF,Max Dew PointF,MeanDew PointF,Min DewpointF,Max Humidity, Mean Humidity, Min Humidity, Max Sea Level PressureIn, Mean Sea Level PressureIn, Min Sea Level PressureIn, Max VisibilityMiles, Mean VisibilityMiles, Min VisibilityMiles, Max Wind SpeedMPH, Mean Wind SpeedMPH, Max Gust SpeedMPH,PrecipitationIn, CloudCover, Events, WindDirDegrees
2013-5-1,62,48,35,43,38,33,92,64,36,30.47,30.43,30.37,10,10,10,13,3,,0.00,0,,136
2013-5-2,72,56,42,46,41,36,93,67,32,30.48,30.42,30.37,10,9,1,14,3,22,0.00,2,,84
2013-5-3,55,46,39,42,39,36,89,73,57,30.52,30.46,30.37,10,10,10,16,7,23,0.00,2,,30
2013-5-4,57,46,35,42,37,32,89,73,45,30.37,30.34,30.32,10,10,9,13,4,20,0.00,0,,74
2013-5-5,55,44,34,41,37,31,93,72,51,30.32,30.30,30.27,10,10,5,13,4,18,0.00,1,,125
2013-5-6,55,45,35,47,41,34,93,85,72,30.29,30.23,30.16,10,9,1,12,2,,0.00,4,,145
2013-5-7,68,54,42,57,48,41,93,78,54,30.17,30.15,30.09,10,8,0,13,3,18,0.00,0,Fog,156
2013-5-8,68,58,48,61,55,48,100,90,73,30.22,30.15,30.05,10,7,0,16,5,23,0.06,5,Fog-Rain,127
2013-5-9,60,56,53,58,55,53,100,98,88,30.07,29.97,29.89,10,5,0,8,4,,0.55,8,Fog-Rain-Thunderstorm,87
2013-5-10,73,63,53,59,54,52,100,93,57,29.95,29.91,29.87,10,5,0,10,5,17,0.01,5,Fog,267
2013-5-11,70,62,55,60,57,53,100,85,65,29.89,29.76,29.68,10,10,5,23,9,32,0.02,7,Rain,189
2013-5-12,69,58,48,60,51,25,100,78,35,29.78,29.62,29.54,10,9,4,18,6,32,0.06,6,Rain,244
2013-5-13,57,48,39,33,28,25,68,48,31,30.01,29.92,29.81,10,10,10,17,9,23,0.00,2,,273
2013-5-14,59,47,37,33,29,25,73,49,30,30.04,30.00,29.95,10,10,10,17,7,23,0.00,5,,315
2013-5-15,64,50,37,50,39,30,86,62,35,30.04,29.88,29.66,10,10,10,17,6,29,0.00,3,,192
2013-5-16,80,66,52,50,39,30,93,43,19,29.79,29.65,29.60,10,10,9,22,10,32,0.00,0,,279
2013-5-17,68,57,48,43,40,37,74,56,37,30.20,30.00,29.81,10,10,10,18,7,25,0.00,2,,324
2013-5-18,70,56,44,50,44,40,89,66,35,30.30,30.25,30.20,10,10,10,15,4,22,0.00,2,,102
2013-5-19,66,56,48,54,50,46,100,85,63,30.35,30.29,30.22,10,6,0,10,3,,0.11,5,Fog-Rain,101
2013-5-20,66,60,55,61,55,53,97,91,81,30.22,30.04,29.91,10,6,2,10,6,,0.14,8,Rain,181
2013-5-21,68,60,50,63,54,50,100,91,82,30.02,29.95,29.89,7,3,0,15,9,26,0.00,8,Rain,81
2013-5-22,59,55,51,55,52,51,100,91,82,30.05,29.94,29.90,10,6,2,10,5,,0.00,8,Rain-Thunderstorm,60
2013-5-23,79,66,53,67,59,52,100,85,65,29.92,29.86,29.80,10,6,0,17,5,30,0.06,7,Fog-Rain,178
2013-5-24,70,62,53,65,59,50,94,89,77,29.80,29.73,29.64,10,7,1,14,8,18,0.86,8,Rain,217
2013-5-25,54,48,43,50,46,37,94,88,79,29.78,29.72,29.67,10,4,2,16,11,29,0.41,8,Rain,336
2013-5-26,59,48,39,41,38,36,93,72,45,30.06,29.80,29.68,10,10,5,20,12,33,0.08,6,Rain,296
2013-5-27,71,56,42,43,38,33,83,54,26,30.16,30.09,30.05,10,10,10,13,7,28,0.00,0,,291
2013-5-28,69,55,42,50,43,37,89,65,34,30.24,30.19,30.16,10,10,10,12,3,,0.00,0,,129
2013-5-29,68,62,55,61,57,51,94,90,78,30.18,30.07,29.97,10,5,2,12,5,,0.58,7,Rain-Thunderstorm,136
2013-5-30,89,74,62,66,62,60,94,71,40,30.05,30.01,29.97,10,9,2,16,8,23,0.00,2,Rain-Thunderstorm,259
2013-5-31,91,78,64,67,63,60,90,57,34,30.06,29.99,29.90,10,10,7,14,5,20,0.00,0,,251